QPF
0.02 0.01 0.02 0.01 0.01 0.00 0.01 0.01 0.00 0.00 0.00 0.00 0.00 0.00 0.00 0.00 0.00 0.00 0.00 0.00 0.01 0.01 0.01 0.01 0.01 0.01 0.01 0.02 0.02 0.03 0.03 0.04 0.03 0.02 0.03 0.04 0.04 0.04 0.06 0.05 0.03 0.02 0.03
0.00 0.01 0.01 0.01 0.01 0.00 0.00 0.01 0.01 0.00 0.00 0.00 0.00 0.00 0.00 0.00 0.00 0.00 0.00 0.01 0.01 0.01 0.01 0.01 0.01 0.01 0.01 0.01 0.01 0.01 0.02 0.03 0.03 0.04 0.04 0.05 0.07 0.07 0.06 0.04 0.01 0.02 0.03
0.00 0.01 0.01 0.01 0.01 0.00 0.00 0.00 0.00 0.00 0.00 0.00 0.00 0.00 0.00 0.00 0.00 0.00 0.00 0.01 0.01 0.01 0.01 0.01 0.01 0.01 0.01 0.00 0.01 0.01 0.01 0.02 0.03 0.04 0.03 0.02 0.05 0.08 0.04 0.04 0.03 0.03 0.02
0.00 0.00 0.00 0.01 0.01 0.00 0.00 0.00 0.00 0.00 0.00 0.00 0.00 0.00 0.00 0.00 0.00 0.01 0.01 0.01 0.01 0.01 0.01 0.01 0.01 0.01 0.01 0.01 0.01 0.02 0.03 0.04 0.04 0.02 0.00 0.01 0.02 0.04 0.03 0.03 0.03 0.02 0.02
0.00 0.00 0.00 0.01 0.00 0.00 0.00 0.00 0.00 0.00 0.00 0.00 0.00 0.00 0.00 0.01 0.00 0.01 0.01 0.02 0.01 0.01 0.01 0.01 0.01 0.01 0.01 0.02 0.02 0.02 0.04 0.04 0.04 0.01 0.00 0.00 0.01 0.03 0.02 0.02 0.02 0.02 0.02
0.01 0.01 0.01 0.01 0.01 0.01 0.00 0.00 0.00 0.00 0.00 0.00 0.00 0.01 0.01 0.00 0.00 0.01 0.01 0.02 0.02 0.01 0.01 0.01 0.00 0.01 0.01 0.01 0.02 0.03 0.05 0.06 0.03 0.00 0.00 0.00 0.00 0.02 0.01 0.02 0.02 0.02 0.02
0.04 0.04 0.03 0.02 0.02 0.01 0.00 0.01 0.01 0.00 0.00 0.00 0.00 0.01 0.00 0.00 0.01 0.01 0.01 0.01 0.01 0.01 0.00 0.01 0.01 0.01 0.01 0.01 0.02 0.03 0.05 0.06 0.02 0.00 0.00 0.00 0.00 0.01 0.01 0.02 0.02 0.01 0.01
0.07 0.08 0.04 0.04 0.03 0.02 0.01 0.01 0.00 0.00 0.00 0.00 0.00 0.01 0.01 0.01 0.01 0.01 0.01 0.01 0.01 0.01 0.01 0.01 0.01 0.00 0.01 0.01 0.02 0.04 0.05 0.03 0.01 0.00 0.00 0.00 0.01 0.01 0.01 0.01 0.01 0.01 0.01
0.05 0.07 0.06 0.04 0.03 0.04 0.03 0.03 0.02 0.01 0.01 0.01 0.01 0.01 0.01 0.01 0.01 0.01 0.01 0.01 0.00 0.01 0.01 0.01 0.01 0.01 0.01 0.01 0.02 0.03 0.05 0.03 0.00 0.00 0.00 0.01 0.02 0.01 0.01 0.01 0.01 0.01 0.01
0.06 0.06 0.06 0.06 0.04 0.03 0.03 0.03 0.03 0.02 0.02 0.01 0.01 0.01 0.01 0.02 0.01 0.01 0.01 0.01 0.01 0.01 0.01 0.01 0.01 0.01 0.01 0.02 0.02 0.03 0.04 0.03 0.00 0.00 0.01 0.01 0.02 0.02 0.01 0.01 0.02 0.01 0.01
0.08 0.07 0.07 0.07 0.06 0.03 0.02 0.03 0.03 0.04 0.02 0.02 0.01 0.02 0.02 0.01 0.01 0.01 0.01 0.01 0.01 0.01 0.02 0.02 0.02 0.02 0.01 0.02 0.02 0.04 0.03 0.01 0.01 0.01 0.00 0.01 0.03 0.03 0.02 0.02 0.02 0.02 0.02
0.13 0.12 0.09 0.06 0.05 0.04 0.02 0.02 0.03 0.03 0.03 0.02 0.02 0.02 0.01 0.01 0.01 0.01 0.02 0.03 0.02 0.02 0.02 0.02 0.02 0.02 0.01 0.01 0.01 0.03 0.02 0.01 0.01 0.01 0.01 0.02 0.03 0.05 0.04 0.03 0.03 0.03 0.03
0.24 0.26 0.17 0.10 0.08 0.06 0.04 0.02 0.02 0.02 0.02 0.01 0.01 0.02 0.01 0.01 0.01 0.02 0.02 0.04 0.04 0.03 0.02 0.01 0.01 0.00 0.01 0.01 0.01 0.01 0.01 0.01 0.01 0.01 0.01 0.03 0.04 0.05 0.05 0.05 0.04 0.04 0.03
0.28 0.27 0.23 0.15 0.10 0.08 0.07 0.05 0.03 0.02 0.01 0.01 0.01 0.01 0.01 0.01 0.01 0.01 0.02 0.04 0.04 0.03 0.01 0.01 0.01 0.01 0.01 0.01 0.01 0.01 0.01 0.01 0.01 0.01 0.02 0.03 0.04 0.05 0.06 0.06 0.06 0.05 0.04
0.29 0.20 0.20 0.13 0.09 0.08 0.08 0.07 0.05 0.03 0.02 0.02 0.01 0.01 0.01 0.01 0.03 0.02 0.02 0.03 0.03 0.03 0.02 0.02 0.02 0.02 0.02 0.01 0.01 0.01 0.02 0.01 0.01 0.01 0.01 0.03 0.04 0.05 0.06 0.07 0.06 0.06 0.06
0.27 0.21 0.18 0.13 0.10 0.08 0.07 0.07 0.06 0.03 0.02 0.02 0.02 0.03 0.02 0.02 0.03 0.03 0.03 0.03 0.02 0.02 0.01 0.01 0.02 0.02 0.02 0.02 0.02 0.02 0.02 0.01 0.01 0.01 0.01 0.02 0.04 0.04 0.05 0.07 0.08 0.07 0.07
0.31 0.25 0.21 0.14 0.11 0.10 0.08 0.07 0.05 0.04 0.04 0.03 0.03 0.03 0.03 0.03 0.02 0.02 0.03 0.04 0.03 0.02 0.01 0.01 0.02 0.01 0.01 0.02 0.02 0.01 0.01 0.01 0.01 0.01 0.01 0.01 0.02 0.04 0.05 0.06 0.07 0.09 0.11
0.43 0.37 0.30 0.17 0.11 0.14 0.11 0.07 0.05 0.05 0.05 0.04 0.03 0.02 0.03 0.04 0.02 0.03 0.03 0.02 0.02 0.02 0.01 0.01 0.01 0.01 0.01 0.01 0.01 0.01 0.01 0.01 0.01 0.01 0.02 0.02 0.01 0.02 0.04 0.06 0.06 0.07 0.09
0.35 0.36 0.29 0.22 0.16 0.15 0.14 0.11 0.10 0.10 0.08 0.06 0.04 0.03 0.03 0.04 0.03 0.02 0.02 0.01 0.01 0.01 0.01 0.01 0.01 0.01 0.01 0.01 0.01 0.00 0.00 0.01 0.01 0.01 0.01 0.01 0.01 0.01 0.02 0.03 0.05 0.05 0.08
0.36 0.37 0.31 0.24 0.19 0.17 0.16 0.16 0.14 0.13 0.09 0.05 0.03 0.02 0.02 0.03 0.03 0.02 0.02 0.01 0.00 0.01 0.01 0.01 0.01 0.01 0.01 0.01 0.02 0.01 0.01 0.01 0.01 0.01 0.01 0.01 0.01 0.01 0.02 0.02 0.02 0.03 0.07
0.38 0.44 0.37 0.29 0.23 0.19 0.15 0.14 0.13 0.11 0.07 0.06 0.04 0.03 0.02 0.02 0.02 0.01 0.00 0.00 0.00 0.01 0.01 0.01 0.01 0.01 0.01 0.01 0.01 0.01 0.01 0.01 0.00 0.01 0.01 0.01 0.01 0.01 0.01 0.02 0.02 0.02 0.04
0.38 0.41 0.36 0.29 0.26 0.23 0.18 0.17 0.16 0.13 0.12 0.09 0.06 0.04 0.03 0.03 0.01 0.01 0.00 0.00 0.00 0.00 0.00 0.00 0.01 0.01 0.01 0.01 0.01 0.00 0.00 0.01 0.00 0.01 0.01 0.01 0.01 0.01 0.01 0.02 0.02 0.01 0.02
0.35 0.41 0.34 0.26 0.22 0.23 0.22 0.18 0.16 0.13 0.11 0.06 0.04 0.03 0.03 0.02 0.02 0.01 0.00 0.00 0.00 0.00 0.00 0.00 0.01 0.01 0.01 0.01 0.00 0.00 0.00 0.00 0.00 0.00 0.00 0.00 0.01 0.01 0.01 0.01 0.01 0.01 0.01
0.29 0.32 0.32 0.26 0.18 0.17 0.17 0.15 0.10 0.07 0.06 0.04 0.03 0.03 0.02 0.02 0.02 0.01 0.01 0.01 0.00 0.00 0.00 0.00 0.00 0.01 0.01 0.01 0.00 0.00 0.00 0.00 0.00 0.00 0.00 0.00 0.00 0.00 0.00 0.00 0.00 0.00 0.01
0.26 0.29 0.28 0.26 0.19 0.16 0.13 0.12 0.10 0.08 0.06 0.05 0.05 0.04 0.02 0.01 0.00 0.01 0.01 0.01 0.00 0.00 0.00 0.00 0.00 0.00 0.00 0.00 0.00 0.00 0.00 0.00 0.00 0.00 0.00 0.00 0.00 0.00 0.00 0.00 0.00 0.00 0.00
0.20 0.23 0.24 0.21 0.19 0.15 0.13 0.13 0.12 0.09 0.07 0.05 0.04 0.03 0.02 0.01 0.00 0.00 0.00 0.00 0.00 0.00 0.00 0.00 0.00 0.00 0.00 0.00 0.00 0.00 0.00 0.00 0.00 0.00 0.00 0.00 0.00 0.00 0.00 0.00 0.00 0.00 0.00
MSLP
1011.46 1011.33 1011.36 1011.56 1011.86 1012.20 1012.52 1012.77 1012.93 1013.00 1013.02 1013.04 1013.09 1013.22 1013.43 1013.71 1014.03 1014.35 1014.63 1014.85 1014.99 1015.07 1015.10 1015.10 1015.10 1015.11 1015.14 1015.20 1015.28 1015.36 1015.45 1015.54 1015.63 1015.74 1015.86 1016.01 1016.18 1016.36 1016.56 1016.76 1016.95 1017.12 1017.28
1011.12 1011.09 1011.22 1011.50 1011.88 1012.29 1012.66 1012.95 1013.14 1013.25 1013.30 1013.35 1013.43 1013.57 1013.79 1014.06 1014.36 1014.66 1014.91 1015.10 1015.23 1015.30 1015.33 1015.34 1015.35 1015.37 1015.41 1015.46 1015.52 1015.57 1015.63 1015.70 1015.77 1015.87 1016.00 1016.16 1016.35 1016.57 1016.79 1017.01 1017.22 1017.42 1017.59
1010.75 1010.81 1011.04 1011.41 1011.86 1012.33 1012.76 1013.10 1013.35 1013.50 1013.60 1013.69 1013.80 1013.96 1014.18 1014.43 1014.70 1014.94 1015.15 1015.30 1015.40 1015.45 1015.49 1015.51 1015.54 1015.58 1015.63 1015.68 1015.73 1015.77 1015.81 1015.86 1015.93 1016.04 1016.18 1016.36 1016.57 1016.80 1017.04 1017.28 1017.51 1017.73 1017.92
1010.38 1010.54 1010.85 1011.29 1011.81 1012.34 1012.83 1013.22 1013.52 1013.72 1013.87 1014.00 1014.15 1014.33 1014.54 1014.77 1015.00 1015.19 1015.35 1015.45 1015.52 1015.57 1015.60 1015.64 1015.70 1015.76 1015.82 1015.88 1015.93 1015.97 1016.02 1016.07 1016.16 1016.27 1016.43 1016.63 1016.85 1017.09 1017.33 1017.58 1017.81 1018.04 1018.26
1010.07 1010.31 1010.69 1011.19 1011.76 1012.33 1012.85 1013.29 1013.62 1013.87 1014.07 1014.25 1014.43 1014.63 1014.84 1015.05 1015.25 1015.40 1015.51 1015.58 1015.63 1015.67 1015.72 1015.78 1015.86 1015.94 1016.03 1016.10 1016.16 1016.21 1016.27 1016.35 1016.45 1016.59 1016.77 1016.98 1017.20 1017.43 1017.66 1017.88 1018.11 1018.34 1018.58
1009.86 1010.15 1010.58 1011.12 1011.72 1012.31 1012.85 1013.30 1013.66 1013.94 1014.17 1014.39 1014.61 1014.83 1015.06 1015.27 1015.44 1015.58 1015.67 1015.73 1015.77 1015.82 1015.88 1015.96 1016.06 1016.17 1016.26 1016.35 1016.42 1016.49 1016.57 1016.67 1016.81 1016.98 1017.17 1017.38 1017.59 1017.80 1017.99 1018.18 1018.37 1018.59 1018.83
1009.77 1010.09 1010.56 1011.12 1011.72 1012.31 1012.83 1013.27 1013.63 1013.93 1014.18 1014.43 1014.69 1014.95 1015.20 1015.43 1015.61 1015.75 1015.85 1015.91 1015.97 1016.03 1016.11 1016.21 1016.32 1016.44 1016.54 1016.63 1016.71 1016.79 1016.89 1017.02 1017.18 1017.38 1017.59 1017.80 1017.99 1018.16 1018.31 1018.44 1018.59 1018.78 1019.01
1009.78 1010.14 1010.62 1011.19 1011.77 1012.33 1012.82 1013.24 1013.58 1013.87 1014.14 1014.42 1014.71 1015.01 1015.30 1015.56 1015.78 1015.94 1016.06 1016.14 1016.22 1016.30 1016.40 1016.51 1016.63 1016.75 1016.84 1016.93 1017.00 1017.08 1017.19 1017.34 1017.53 1017.74 1017.97 1018.17 1018.35 1018.48 1018.58 1018.66 1018.76 1018.91 1019.12
1009.89 1010.28 1010.78 1011.33 1011.89 1012.41 1012.86 1013.22 1013.54 1013.81 1014.09 1014.39 1014.72 1015.06 1015.39 1015.70 1015.95 1016.15 1016.30 1016.41 1016.51 1016.61 1016.72 1016.84 1016.96 1017.06 1017.14 1017.20 1017.26 1017.34 1017.44 1017.60 1017.80 1018.03 1018.26 1018.47 1018.63 1018.74 1018.80 1018.84 1018.90 1019.01 1019.20
1010.05 1010.49 1011.00 1011.55 1012.08 1012.55 1012.94 1013.27 1013.54 1013.80 1014.09 1014.40 1014.76 1015.14 1015.51 1015.86 1016.15 1016.38 1016.55 1016.69 1016.81 1016.92 1017.03 1017.15 1017.25 1017.34 1017.39 1017.43 1017.47 1017.53 1017.63 1017.78 1017.98 1018.22 1018.46 1018.67 1018.83 1018.93 1018.98 1019.00 1019.03 1019.12 1019.29
1010.25 1010.73 1011.27 1011.81 1012.31 1012.74 1013.09 1013.37 1013.61 1013.86 1014.14 1014.48 1014.86 1015.26 1015.67 1016.04 1016.35 1016.60 1016.79 1016.94 1017.06 1017.18 1017.30 1017.41 1017.50 1017.57 1017.61 1017.63 1017.65 1017.68 1017.76 1017.90 1018.10 1018.33 1018.58 1018.80 1018.97 1019.09 1019.14 1019.17 1019.20 1019.28 1019.44
1010.45 1010.99 1011.55 1012.08 1012.56 1012.95 1013.26 1013.51 1013.74 1013.98 1014.26 1014.61 1015.00 1015.43 1015.84 1016.22 1016.54 1016.79 1016.98 1017.13 1017.26 1017.38 1017.49 1017.60 1017.69 1017.76 1017.79 1017.80 1017.81 1017.83 1017.89 1018.00 1018.18 1018.40 1018.65 1018.88 1019.08 1019.22 1019.31 1019.37 1019.42 1019.52 1019.68
1010.65 1011.23 1011.80 1012.32 1012.78 1013.14 1013.42 1013.66 1013.88 1014.12 1014.41 1014.77 1015.17 1015.60 1016.01 1016.38 1016.70 1016.94 1017.12 1017.27 1017.39 1017.51 1017.63 1017.75 1017.85 1017.93 1017.98 1017.99 1017.99 1018.00 1018.04 1018.13 1018.28 1018.48 1018.72 1018.95 1019.17 1019.35 1019.48 1019.59 1019.69 1019.81 1019.97
1010.82 1011.42 1011.99 1012.50 1012.92 1013.27 1013.54 1013.77 1014.00 1014.25 1014.56 1014.92 1015.32 1015.74 1016.14 1016.50 1016.80 1017.03 1017.21 1017.35 1017.48 1017.60 1017.74 1017.88 1018.02 1018.12 1018.20 1018.24 1018.25 1018.26 1018.28 1018.34 1018.45 1018.61 1018.82 1019.04 1019.27 1019.48 1019.66 1019.82 1019.96 1020.12 1020.29
1010.97 1011.56 1012.10 1012.58 1012.98 1013.31 1013.58 1013.83 1014.07 1014.35 1014.67 1015.03 1015.43 1015.84 1016.22 1016.57 1016.85 1017.08 1017.25 1017.40 1017.55 1017.70 1017.86 1018.04 1018.22 1018.37 1018.48 1018.56 1018.59 1018.60 1018.61 1018.63 1018.70 1018.81 1018.97 1019.17 1019.39 1019.61 1019.82 1020.02 1020.20 1020.38 1020.57
1011.09 1011.64 1012.13 1012.56 1012.93 1013.25 1013.54 1013.81 1014.09 1014.40 1014.73 1015.10 1015.49 1015.88 1016.25 1016.58 1016.86 1017.09 1017.29 1017.46 1017.64 1017.83 1018.03 1018.25 1018.47 1018.68 1018.84 1018.95 1019.01 1019.03 1019.03 1019.02 1019.03 1019.08 1019.18 1019.33 1019.51 1019.72 1019.94 1020.15 1020.36 1020.55 1020.74
1011.19 1011.65 1012.07 1012.45 1012.80 1013.13 1013.45 1013.76 1014.09 1014.42 1014.78 1015.15 1015.53 1015.90 1016.25 1016.57 1016.86 1017.11 1017.34 1017.56 1017.78 1018.02 1018.27 1018.53 1018.79 1019.03 1019.24 1019.39 1019.47 1019.51 1019.49 1019.46 1019.42 1019.41 1019.43 1019.51 1019.64 1019.81 1020.00 1020.21 1020.41 1020.61 1020.78
1011.24 1011.60 1011.94 1012.28 1012.62 1012.98 1013.35 1013.72 1014.10 1014.47 1014.85 1015.21 1015.57 1015.92 1016.25 1016.57 1016.88 1017.17 1017.44 1017.72 1017.99 1018.27 1018.56 1018.85 1019.14 1019.41 1019.64 1019.81 1019.93 1019.97 1019.96 1019.90 1019.83 1019.76 1019.71 1019.72 1019.77 1019.88 1020.03 1020.20 1020.38 1020.55 1020.71
1011.24 1011.50 1011.77 1012.08 1012.44 1012.84 1013.28 1013.73 1014.17 1014.59 1014.98 1015.33 1015.67 1015.99 1016.30 1016.62 1016.95 1017.27 1017.60 1017.93 1018.25 1018.57 1018.88 1019.19 1019.48 1019.76 1020.00 1020.19 1020.32 1020.38 1020.38 1020.32 1020.22 1020.11 1020.01 1019.94 1019.92 1019.96 1020.05 1020.17 1020.31 1020.44 1020.56
1011.17 1011.35 1011.57 1011.88 1012.28 1012.75 1013.28 1013.82 1014.33 1014.79 1015.20 1015.54 1015.84 1016.13 1016.42 1016.73 1017.07 1017.43 1017.80 1018.18 1018.54 1018.88 1019.20 1019.50 1019.78 1020.04 1020.27 1020.47 1020.62 1020.70 1020.73 1020.68 1020.58 1020.45 1020.31 1020.19 1020.11 1020.08 1020.10 1020.16 1020.24 1020.33 1020.41
1011.05 1011.16 1011.37 1011.70 1012.16 1012.72 1013.35 1013.99 1014.58 1015.09 1015.50 1015.83 1016.10 1016.34 1016.60 1016.90 1017.24 1017.62 1018.03 1018.44 1018.82 1019.17 1019.49 1019.76 1020.01 1020.24 1020.45 1020.65 1020.81 1020.92 1020.98 1020.97 1020.90 1020.78 1020.63 1020.48 1020.35 1020.25 1020.21 1020.20 1020.23 1020.27 1020.31
1010.87 1010.96 1011.17 1011.54 1012.08 1012.75 1013.48 1014.21 1014.88 1015.43 1015.86 1016.17 1016.40 1016.61 1016.83 1017.10 1017.44 1017.83 1018.25 1018.68 1019.07 1019.41 1019.70 1019.94 1020.15 1020.34 1020.53 1020.72 1020.90 1021.05 1021.16 1021.21 1021.18 1021.09 1020.95 1020.79 1020.63 1020.49 1020.39 1020.32 1020.29 1020.29 1020.29
1010.67 1010.75 1010.99 1011.42 1012.04 1012.80 1013.63 1014.44 1015.18 1015.77 1016.20 1016.50 1016.70 1016.87 1017.05 1017.30 1017.62 1018.01 1018.44 1018.86 1019.25 1019.57 1019.83 1020.04 1020.21 1020.36 1020.53 1020.72 1020.92 1021.11 1021.28 1021.39 1021.42 1021.38 1021.27 1021.12 1020.94 1020.77 1020.63 1020.52 1020.44 1020.39 1020.36
1010.49 1010.60 1010.87 1011.35 1012.03 1012.85 1013.75 1014.63 1015.40 1016.02 1016.47 1016.75 1016.93 1017.07 1017.23 1017.45 1017.76 1018.13 1018.55 1018.97 1019.34 1019.65 1019.88 1020.05 1020.19 1020.32 1020.48 1020.68 1020.90 1021.14 1021.35 1021.52 1021.62 1021.63 1021.56 1021.42 1021.25 1021.06 1020.89 1020.74 1020.63 1020.54 1020.48
1010.39 1010.53 1010.83 1011.34 1012.05 1012.90 1013.82 1014.72 1015.52 1016.15 1016.60 1016.88 1017.05 1017.18 1017.32 1017.53 1017.82 1018.18 1018.59 1018.99 1019.35 1019.64 1019.85 1020.00 1020.12 1020.25 1020.41 1020.61 1020.86 1021.13 1021.40 1021.62 1021.77 1021.82 1021.78 1021.67 1021.50 1021.31 1021.12 1020.95 1020.81 1020.70 1020.61
1010.42 1010.58 1010.90 1011.40 1012.09 1012.92 1013.83 1014.71 1015.50 1016.13 1016.58 1016.87 1017.05 1017.17 1017.32 1017.52 1017.80 1018.15 1018.54 1018.93 1019.27 1019.55 1019.76 1019.90 1020.02 1020.15 1020.32 1020.54 1020.82 1021.12 1021.42 1021.67 1021.85 1021.94 1021.93 1021.84 1021.68 1021.49 1021.30 1021.12 1020.96 1020.83 1020.72
Thickness
5782 5783 5782 5780 5779 5777 5776 5775 5774 5774 5773 5772 5772 5771 5769 5768 5767 5765 5764 5763 5761 5760 5759 5758 5757 5756 5755 5754 5753 5751 5751 5750 5749 5747 5746 5745 5743 5742 5741 5740 5739 5737 5735
5789 5784 5782 5779 5778 5776 5774 5773 5772 5772 5771 5770 5769 5768 5767 5766 5765 5763 5762 5761 5759 5758 5757 5755 5754 5753 5752 5751 5751 5749 5748 5747 5746 5745 5744 5743 5742 5740 5739 5738 5737 5735 5733
5789 5784 5781 5779 5777 5775 5773 5772 5770 5769 5769 5768 5767 5766 5765 5764 5763 5761 5760 5758 5757 5756 5754 5753 5752 5751 5750 5749 5748 5747 5746 5745 5744 5743 5742 5741 5739 5739 5738 5736 5735 5733 5732
5788 5783 5780 5777 5775 5773 5771 5770 5769 5767 5767 5766 5765 5764 5762 5761 5760 5759 5757 5756 5754 5753 5752 5751 5750 5749 5748 5747 5746 5745 5745 5743 5742 5741 5740 5738 5737 5736 5736 5734 5733 5731 5730
5785 5781 5779 5776 5773 5771 5769 5768 5766 5766 5765 5763 5762 5761 5760 5759 5757 5756 5755 5753 5752 5751 5749 5748 5748 5747 5746 5745 5744 5743 5743 5742 5740 5739 5737 5737 5735 5734 5733 5732 5731 5729 5728
5782 5779 5777 5774 5771 5769 5767 5765 5764 5763 5762 5761 5760 5758 5757 5756 5754 5753 5752 5750 5749 5748 5747 5746 5745 5744 5743 5743 5742 5742 5741 5740 5738 5736 5735 5734 5733 5732 5731 5730 5729 5727 5726
5779 5777 5775 5772 5769 5767 5765 5763 5762 5761 5760 5759 5757 5756 5754 5752 5751 5750 5749 5747 5746 5745 5744 5743 5742 5742 5741 5740 5740 5740 5739 5738 5736 5734 5733 5732 5731 5730 5729 5728 5727 5725 5724
5776 5773 5771 5768 5766 5764 5763 5762 5760 5759 5757 5756 5755 5753 5751 5750 5748 5746 5745 5744 5743 5742 5741 5740 5740 5739 5739 5738 5738 5737 5736 5735 5733 5731 5730 5729 5728 5728 5727 5726 5724 5723 5722
5773 5770 5767 5765 5763 5761 5761 5760 5758 5757 5755 5754 5752 5750 5749 5747 5745 5743 5742 5742 5740 5739 5739 5738 5737 5736 5736 5736 5735 5735 5734 5732 5730 5728 5727 5726 5725 5725 5724 5723 5722 5721 5720
5767 5766 5763 5761 5760 5759 5758 5757 5756 5755 5752 5751 5750 5748 5746 5745 5743 5741 5739 5739 5738 5737 5736 5735 5734 5734 5733 5733 5733 5732 5731 5729 5727 5726 5725 5724 5723 5722 5722 5721 5720 5719 5719
5761 5760 5759 5758 5756 5755 5754 5754 5753 5752 5750 5748 5747 5746 5744 5742 5740 5738 5736 5736 5735 5734 5734 5733 5732 5731 5730 5730 5730 5729 5728 5726 5724 5723 5722 5722 5721 5720 5720 5719 5718 5717 5717
5756 5755 5755 5754 5753 5752 5751 5750 5749 5749 5747 5746 5744 5743 5741 5740 5737 5735 5734 5733 5732 5732 5731 5730 5729 5728 5727 5727 5727 5726 5725 5723 5722 5721 5720 5720 5719 5718 5717 5717 5716 5716 5715
5755 5753 5751 5751 5750 5749 5748 5747 5746 5745 5744 5743 5742 5740 5738 5737 5735 5733 5731 5730 5729 5729 5728 5727 5727 5726 5725 5724 5724 5723 5723 5721 5719 5719 5718 5718 5717 5716 5715 5714 5714 5714 5713
5751 5750 5748 5747 5746 5745 5745 5743 5742 5742 5741 5740 5739 5738 5736 5734 5733 5731 5729 5727 5726 5726 5725 5725 5724 5724 5723 5722 5722 5721 5720 5719 5718 5717 5717 5716 5715 5714 5713 5713 5712 5712 5711
5747 5746 5744 5744 5743 5742 5741 5740 5739 5739 5738 5738 5737 5736 5734 5732 5730 5728 5726 5725 5724 5723 5723 5722 5722 5722 5721 5720 5720 5719 5719 5718 5717 5716 5715 5715 5714 5713 5712 5711 5711 5710 5709
5743 5741 5741 5740 5740 5740 5739 5738 5736 5736 5736 5735 5734 5733 5732 5731 5729 5727 5725 5723 5722 5721 5721 5720 5720 5720 5719 5718 5718 5717 5717 5716 5715 5714 5714 5713 5713 5712 5711 5710 5710 5709 5708
5741 5739 5738 5737 5737 5737 5736 5735 5734 5734 5733 5732 5732 5731 5730 5729 5728 5725 5723 5721 5720 5720 5719 5719 5718 5718 5717 5717 5716 5716 5715 5714 5714 5713 5712 5712 5711 5711 5710 5709 5708 5708 5707
5738 5736 5735 5736 5734 5734 5734 5733 5732 5732 5731 5730 5730 5729 5728 5727 5726 5724 5722 5720 5719 5718 5718 5717 5717 5716 5715 5714 5714 5714 5713 5713 5712 5712 5712 5711 5711 5710 5710 5709 5708 5707 5706
5738 5735 5733 5733 5732 5732 5731 5731 5730 5729 5729 5728 5728 5727 5726 5725 5724 5723 5722 5720 5718 5717 5716 5716 5714 5714 5713 5712 5712 5712 5712 5711 5711 5711 5711 5710 5710 5710 5709 5709 5708 5707 5706
5735 5734 5732 5730 5730 5730 5728 5727 5726 5726 5726 5726 5725 5725 5725 5723 5722 5722 5720 5718 5717 5716 5714 5714 5713 5712 5711 5711 5712 5710 5710 5710 5710 5710 5710 5710 5709 5709 5708 5708 5707 5706 5705
5732 5731 5730 5729 5728 5727 5725 5724 5722 5722 5723 5723 5724 5724 5724 5722 5721 5721 5719 5717 5716 5714 5714 5713 5712 5711 5710 5710 5708 5706 5706 5708 5708 5709 5709 5709 5709 5708 5708 5707 5706 5705 5704
5732 5731 5730 5729 5727 5727 5726 5725 5723 5722 5721 5721 5722 5722 5722 5721 5720 5719 5719 5716 5715 5713 5712 5712 5712 5710 5709 5708 5707 5703 5700 5702 5705 5707 5707 5707 5707 5707 5707 5706 5705 5704 5703
5732 5730 5731 5728 5726 5726 5725 5723 5721 5719 5718 5717 5718 5719 5720 5720 5719 5719 5718 5716 5715 5713 5712 5712 5712 5711 5708 5707 5707 5705 5700 5697 5700 5704 5705 5706 5706 5706 5706 5705 5704 5703 5702
5734 5731 5729 5727 5725 5724 5724 5722 5720 5719 5717 5717 5718 5718 5719 5719 5718 5718 5717 5716 5715 5714 5713 5712 5712 5712 5710 5707 5706 5706 5705 5704 5700 5698 5702 5703 5704 5704 5704 5704 5703 5702 5701
5736 5733 5729 5725 5723 5723 5722 5721 5720 5719 5718 5717 5717 5717 5717 5717 5717 5717 5716 5715 5715 5714 5713 5713 5712 5712 5711 5709 5707 5706 5704 5702 5702 5700 5697 5699 5701 5702 5702 5702 5702 5701 5700
5737 5734 5729 5725 5723 5722 5721 5720 5720 5718 5717 5715 5715 5714 5714 5714 5715 5715 5715 5714 5714 5713 5713 5712 5712 5712 5711 5710 5709 5707 5706 5704 5701 5700 5697 5696 5696 5699 5700 5701 5701 5700 5700